• Join FlightAware (Why Join?)
  • Login
  • US Flag 
04:18PM EDT


 

Airport Tracker/Info


-or-


 

Live Flight TrackerFlight Track Log ✈ UAL5863 ✈ 01-May-2013 ✈ KSBN - KORD

Flight Track Log - Related Links

Times and Time Zones

All times are in EDT time to prevent confusion due to time zone crossing. See the UAL5863 flight status page for this flight to view local times or setup timezone preferences in your user account.

Time Position Orientation Groundspeed Altitude Reporting Facility
EDT Latitude Longitude Course Direction KTS MPH feet Rate Location/Type
03:54PM 41.7672 -86.1944 312° West 227 261 3,200  Level Chicago Center
03:55PM 41.8228 -86.2697 315° West 258 297 5,900 2,280 Climbing Chicago Center
03:56PM 41.8647 -86.3553 303° West 271 312 8,000 960 Climbing Chicago Center
03:57PM 41.9092 -86.4436 304° West 284 327 8,000  Level Chicago Center
03:58PM 42.0405 -86.7690 312° West  Level FlightAware Approximate
03:58PM 41.9533 -86.5333 304° West 287 330 8,000  Level Chicago Center
03:59PM 42.0968 -86.8533 312° West  Level FlightAware Approximate
03:59PM 41.9983 -86.6222 304° West 288 331 8,000  Level Chicago Center
04:00PM 42.0472 -86.7225 303° West 290 334 8,000  Level Chicago Center
04:01PM 42.0911 -86.8117 304° West 288 331 8,000  Level Chicago Center
04:02PM 42.1444 -86.9197 304° West 291 335 8,000  Level Chicago Center
04:03PM 42.1592 -87.0164 282° West 268 308 8,000 -60 Level Chicago Center
04:04PM 42.1656 -87.1147 275° West 265 305 7,900 -300 Descending Chicago Center
04:05PM 42.1711 -87.2147 274° West 269 310 7,400 -540 Descending Chicago Center
04:06PM 42.1797 -87.3136 277° West 269 310 6,900 -240 Descending Chicago Center
04:07PM 42.1992 -87.4286 283° West 275 316 7,000  Climbing Chicago Center
04:08PM 42.2492 -87.5092 310° West 284 327 7,000  Level Chicago Center
04:09PM 42.2781 -87.5958 294° West 284 327 7,000 -300 Level Chicago Center
04:10PM 42.2197 -87.6483 214° Southwest 259 298 6,400 -1,020 Descending Chicago Center
04:11PM 42.1703 -87.7056 221° Southwest 238 274 5,000 -1,320 Descending Chicago Center
04:12PM 42.1167 -87.7667 220° Southwest 213 245 3,800 -1,140 Descending Chicago TRACON
04:13PM 42.0833 -87.8000 217° Southwest 183 211 2,800 -1,020 Descending Chicago TRACON
04:14PM 42.0333 -87.8500 217° Southwest 171 197 1,800 -840 Descending Chicago TRACON
04:16PM 42.0167 -87.8833 236° Southwest 127 146 1,100 -660 Descending Chicago TRACON